TimeCDT,TemperatureF,Dew PointF,Humidity,Sea Level PressureIn,VisibilityMPH,Wind Direction,Wind SpeedMPH,Gust SpeedMPH,PrecipitationIn,Events,Conditions,WindDirDegrees,DateUTC
12:54 AM,62.1,44.1,52,29.93,10.0,South,9.2,-,N/A,,Scattered Clouds,180,2012-10-04 05:54:00
1:54 AM,64.0,44.1,48,29.93,10.0,South,10.4,-,N/A,,Overcast,180,2012-10-04 06:54:00
2:54 AM,62.1,45.0,53,29.91,10.0,South,9.2,-,N/A,,Scattered Clouds,180,2012-10-04 07:54:00
3:54 AM,60.1,45.0,57,29.94,10.0,West,9.2,-,N/A,,Clear,270,2012-10-04 08:54:00
4:54 AM,55.0,39.9,57,30.01,10.0,NW,26.5,33.4,N/A,,Clear,310,2012-10-04 09:54:00
5:54 AM,53.1,39.9,61,30.04,10.0,NW,16.1,24.2,N/A,,Mostly Cloudy,310,2012-10-04 10:54:00
6:54 AM,53.1,39.9,61,30.10,10.0,WNW,18.4,21.9,N/A,,Overcast,290,2012-10-04 11:54:00
7:54 AM,48.9,43.0,80,30.10,10.0,WNW,12.7,-,0.01,Rain,Light Rain,290,2012-10-04 12:54:00
8:54 AM,48.9,42.1,77,30.12,10.0,NW,12.7,-,0.00,,Mostly Cloudy,320,2012-10-04 13:54:00
9:54 AM,50.0,37.9,63,30.14,10.0,NW,13.8,-,N/A,,Mostly Cloudy,320,2012-10-04 14:54:00
10:54 AM,51.1,37.9,61,30.18,10.0,NW,19.6,25.3,N/A,,Overcast,310,2012-10-04 15:54:00
11:54 AM,48.9,37.0,64,30.21,10.0,WNW,13.8,23.0,0.00,Rain,Light Rain,300,2012-10-04 16:54:00
12:18 PM,48.2,37.4,66,30.21,10.0,WNW,16.1,-,0.00,Rain,Light Rain,300,2012-10-04 17:18:00
12:34 PM,50.0,37.4,62,30.20,10.0,WNW,17.3,23.0,0.00,,Overcast,300,2012-10-04 17:34:00
12:54 PM,51.1,36.0,56,30.21,10.0,WNW,15.0,-,0.00,,Mostly Cloudy,290,2012-10-04 17:54:00
1:54 PM,55.0,35.1,47,30.19,10.0,WNW,18.4,24.2,N/A,,Scattered Clouds,300,2012-10-04 18:54:00
2:54 PM,59.0,34.0,39,30.17,10.0,NW,16.1,24.2,N/A,,Scattered Clouds,310,2012-10-04 19:54:00
3:54 PM,60.1,33.1,36,30.18,10.0,NW,15.0,26.5,N/A,,Scattered Clouds,320,2012-10-04 20:54:00
4:54 PM,59.0,32.0,36,30.18,10.0,NW,17.3,24.2,N/A,,Scattered Clouds,310,2012-10-04 21:54:00
5:54 PM,57.0,30.9,37,30.19,10.0,NW,15.0,20.7,N/A,,Mostly Cloudy,320,2012-10-04 22:54:00
6:54 PM,55.0,30.9,40,30.21,10.0,NNW,9.2,-,N/A,,Mostly Cloudy,330,2012-10-04 23:54:00
7:54 PM,53.1,30.9,43,30.23,10.0,NNW,10.4,-,N/A,,Overcast,330,2012-10-05 00:54:00
8:54 PM,52.0,30.9,45,30.25,10.0,NNW,9.2,-,N/A,,Mostly Cloudy,340,2012-10-05 01:54:00
9:54 PM,51.1,30.9,46,30.24,10.0,NNW,10.4,-,N/A,,Overcast,340,2012-10-05 02:54:00
10:54 PM,50.0,30.0,46,30.27,10.0,NW,9.2,-,N/A,,Overcast,320,2012-10-05 03:54:00
11:54 PM,48.0,30.0,50,30.27,10.0,NNW,12.7,-,N/A,,Overcast,340,2012-10-05 04:54:00